GPS BIIF-7

Last updated on Sun Apr 12 2026 00:02:39 GMT+0000 (Coordinated Universal Time)

1 40105U 14045A 26100.74274904 .00000051 00000+0 00000+0 0 9994 2 40105 55.3088 91.1502 0031441 119.6198 240.7076 2.00554046 84720
UTC large
Height (km)
Speed (km/s)
/
Latitude / Longitude
Inclination (degrees)
Orbital Period (minutes)
Azimuth
Elevation
Range (km)
Doppler Factor

Next 0 passes for location: London (51.5072 / 0.1276)

Sorry there are no passes over London.